Location: Tafessasset
(32.5899°N, 5.4824°W)
Time: 09:13:04
(UTC+00:00)

NOSS 3-1 (A) - Pass Details

Date: 18 February 2020
Orbit: 761 x 1452 km, 63.4° (Epoch: 26 March)

Event Time Altitude Azimuth Distance (km) Brightness Sun altitude
Exits shadow 04:44:07 18° 339° (NNW) 2,703 5.6 -29.8°
Maximum altitude 04:50:27 67° 58° (ENE) 1,464 4.4 -28.5°
Drops below altitude 10° 04:59:14 10° 140° (SE) 3,546 6.8 -26.6°
Sets 05:02:16 0° 143° (SE) 4,536 7.4 -26.0°
